Theta_e
288 289 289 290 289 289 289 289 289 289 291 292 291 292 294 295 293 292 295 295 296 300 300 301 302 303 304 304 306 306 305 305 307 309 313 319 322 324 325 327 329 330 331 333 334 335 336 337 337 338 340 341 343 343 344 345 345 346 347 346 346 346 347 347 348 349 349 349 350 350 350 350 350 350 350 350 351 352 352 352 353 353 354 353 352 352 354
287 288 288 290 288 288 289 289 290 292 292 292 294 294 296 296 295 295 296 296 298 301 303 302 302 302 302 303 304 308 309 308 309 309 313 318 321 323 325 327 329 331 332 334 335 336 336 337 337 338 339 341 342 342 343 344 345 346 347 346 346 346 345 346 348 349 349 349 349 349 349 349 349 350 350 350 350 351 351 352 353 354 354 354 353 352 352
285 287 289 290 289 289 287 289 291 292 294 297 300 300 300 300 297 298 296 296 297 302 306 308 307 307 308 311 312 311 310 310 313 315 317 319 322 323 326 328 329 331 332 334 335 336 336 337 337 338 339 341 342 342 343 344 345 346 347 346 346 346 345 347 347 348 349 349 349 349 349 349 350 350 350 350 350 351 351 352 352 354 354 353 353 353 353
283 287 288 288 289 288 288 288 291 295 297 298 303 299 302 297 295 295 295 294 296 301 313 315 313 308 308 310 312 314 312 313 317 318 320 321 323 324 326 328 329 330 332 333 334 335 336 337 338 339 340 340 341 342 343 344 345 346 346 346 346 346 347 347 347 347 348 349 349 349 349 349 350 350 350 350 350 350 350 351 352 353 352 353 354 354 354
282 286 287 287 287 289 289 291 295 297 298 300 303 308 309 308 306 298 295 297 305 310 315 312 309 308 316 323 325 324 320 315 317 320 321 322 324 325 327 328 330 330 332 333 335 336 337 338 338 339 340 340 341 342 343 345 346 346 346 346 346 346 347 347 347 348 348 348 348 349 349 350 350 350 350 350 350 350 350 351 352 351 352 352 352 353 354
281 284 286 287 286 282 285 298 301 300 298 300 299 302 308 309 309 306 308 308 312 314 314 314 313 308 321 324 328 329 327 325 317 318 321 323 325 326 327 329 330 331 333 334 336 337 338 339 340 340 342 341 342 344 345 346 346 346 346 346 346 346 347 347 348 348 348 348 348 348 349 350 350 350 350 349 350 351 351 352 351 351 351 352 352 352 353
280 284 286 286 282 285 298 301 303 303 303 303 302 303 311 310 310 309 310 311 313 316 317 316 315 312 323 329 333 336 338 335 326 319 321 323 325 326 328 329 330 332 333 334 336 336 337 339 340 341 341 343 343 344 345 345 346 346 346 346 346 346 347 348 348 348 348 348 348 349 349 350 350 350 350 350 350 351 351 351 351 351 351 351 352 352 352
286 281 282 277 283 293 295 307 304 304 304 304 304 303 310 310 309 309 308 311 315 318 319 321 321 317 319 324 333 338 339 340 338 323 320 323 325 327 328 330 331 332 333 334 335 337 340 340 340 340 341 343 343 343 345 345 346 346 346 346 346 347 347 347 348 349 349 349 349 349 349 350 349 349 350 350 350 351 351 351 352 353 353 353 352 352 352
278 281 281 282 288 290 297 296 298 300 297 300 300 295 302 311 309 309 308 311 315 316 320 324 325 325 324 329 333 339 339 340 342 332 321 323 326 328 330 331 332 334 335 336 337 340 339 340 340 340 342 343 343 343 344 345 346 346 346 346 346 347 347 347 348 349 349 349 349 349 349 349 349 349 349 350 351 352 351 351 351 351 352 352 353 353 352
285 280 277 279 280 282 291 298 304 305 305 306 306 303 301 310 309 310 309 310 313 314 317 324 327 324 327 324 329 337 339 341 341 342 332 323 325 327 328 330 331 333 334 336 341 339 339 340 340 341 342 343 343 343 343 345 345 346 346 346 347 348 348 348 349 349 350 350 349 350 350 349 349 350 351 351 351 353 351 351 350 351 352 353 353 353 352
283 279 276 276 275 282 294 297 301 305 306 308 309 301 300 308 309 310 310 310 311 312 315 321 330 324 322 324 329 336 338 339 341 342 341 337 326 327 329 330 331 332 335 337 340 339 338 338 339 341 342 343 342 342 344 344 345 345 346 347 348 348 349 350 350 351 351 351 350 350 350 350 351 350 351 351 352 353 352 352 352 353 353 352 352 353 353
283 281 278 275 283 281 293 300 302 305 309 309 304 295 297 305 310 309 310 310 310 309 313 319 329 326 323 324 329 336 338 339 341 342 343 341 338 333 330 331 333 335 341 341 337 336 337 338 340 341 342 343 343 343 343 344 344 345 346 348 350 351 351 352 352 352 352 352 351 351 351 351 352 352 353 353 353 353 353 353 352 353 353 352 351 352 352
284 284 280 282 284 295 302 302 304 309 310 307 297 290 298 308 309 309 310 311 311 310 311 315 318 326 329 331 334 337 339 340 341 343 346 347 346 343 340 339 346 339 338 337 336 336 338 340 340 341 342 343 344 345 345 344 344 346 348 350 351 352 352 353 353 353 353 353 352 352 352 352 352 353 353 353 353 353 352 353 353 352 352 352 351 351 352
282 282 280 281 285 298 304 306 309 309 306 292 292 302 311 309 307 308 309 310 313 312 311 313 317 323 328 332 334 335 337 338 340 342 343 345 346 349 353 353 349 346 346 346 346 346 345 343 342 342 343 343 344 345 345 344 346 348 350 351 352 353 353 353 354 354 354 355 355 354 354 354 353 353 354 355 354 353 353 352 352 351 352 351 351 351 351
286 285 281 280 277 293 306 307 306 305 296 294 303 306 309 310 308 307 308 310 312 313 310 312 314 319 323 326 329 333 335 336 338 339 340 341 342 343 345 346 350 348 346 346 347 348 349 347 345 344 343 344 345 346 344 346 349 351 351 352 352 353 354 354 355 355 356 355 355 355 355 355 354 353 354 354 354 354 353 352 352 351 351 351 350 350 350
283 282 280 282 295 299 307 306 296 302 304 307 307 307 305 307 307 306 307 308 312 314 311 309 311 315 318 323 326 328 330 333 335 338 339 341 341 342 344 345 346 347 345 345 346 348 349 351 350 349 347 347 348 347 346 349 348 352 353 353 353 353 353 354 355 356 357 357 357 357 357 356 355 354 354 354 354 354 353 352 351 350 351 351 350 349 349
288 286 290 297 303 306 307 308 305 305 306 308 309 309 307 305 306 309 308 308 312 313 311 309 310 312 315 318 322 325 326 329 332 334 337 338 339 340 340 341 344 343 342 343 344 345 347 348 350 352 353 352 352 350 349 352 352 350 352 353 353 352 353 353 354 356 357 358 358 358 359 358 356 355 355 355 353 354 353 352 352 351 351 351 350 349 349
295 296 296 300 301 305 305 307 306 303 305 306 309 307 305 307 308 309 308 311 312 312 311 308 308 309 312 316 318 322 325 327 330 333 334 336 338 340 340 340 341 340 339 340 340 341 343 346 347 349 349 351 350 348 350 355 354 350 349 351 352 352 353 353 353 355 356 357 358 359 359 359 358 357 356 355 354 353 353 352 352 351 351 350 349 350 349
288 286 296 295 297 301 304 304 305 306 307 307 308 308 307 308 310 310 312 313 313 312 311 309 307 306 309 312 316 319 322 325 328 330 331 333 336 336 337 340 341 338 338 337 338 339 339 341 344 345 345 346 347 348 349 351 354 352 348 348 350 351 352 352 353 354 354 355 356 358 359 359 359 359 358 356 355 353 353 352 352 351 351 350 349 349 349
288 289 294 295 298 305 307 307 307 306 306 307 307 308 308 310 312 312 312 314 313 313 308 309 307 306 308 309 312 316 320 322 325 327 330 331 334 336 337 338 340 337 336 336 337 338 337 338 341 343 344 344 345 346 348 350 351 351 349 347 347 348 349 352 352 353 353 359 357 355 357 358 357 357 357 357 356 354 353 353 352 351 351 350 349 349 349
291 294 295 296 297 302 304 304 305 310 307 307 306 306 308 309 309 309 310 311 310 313 310 311 309 306 307 308 311 315 318 321 323 326 329 331 333 336 336 336 338 336 336 337 336 337 337 337 339 340 341 342 344 345 347 348 349 351 350 350 348 347 348 351 352 354 353 354 355 355 352 330 321 318 330 354 356 356 355 357 356 354 352 352 351 352 352
286 288 291 294 289 289 295 296 299 305 308 307 306 306 306 306 307 308 307 308 308 312 314 312 310 305 305 307 309 313 318 320 322 325 328 330 331 334 336 337 335 336 339 337 337 337 336 337 338 339 339 340 342 345 345 346 349 354 353 350 348 346 347 350 351 354 353 353 354 350 340 329 323 317 306 298 304 338 347 325 323 328 332 352 355 355 354
286 292 294 295 295 294 295 296 301 302 301 306 306 305 304 305 308 309 308 306 306 308 311 312 312 308 306 306 308 310 316 319 322 325 328 329 330 333 335 335 335 336 337 339 338 337 336 337 338 339 339 340 341 342 343 344 346 349 351 349 347 346 348 349 349 353 353 353 348 343 337 335 333 327 326 319 300 297 304 307 308 314 312 316 326 333 349
294 296 295 296 295 293 296 299 299 299 301 302 305 307 306 307 308 309 308 308 306 306 309 309 313 312 309 308 308 309 313 318 321 325 328 330 330 333 334 334 335 335 336 335 333 334 334 336 336 338 339 339 340 342 342 343 343 344 349 350 348 347 349 349 350 352 352 347 342 338 336 337 337 336 333 331 327 304 297 300 299 295 301 312 313 315 323
293 298 298 298 297 297 298 299 299 300 301 303 302 306 308 306 308 309 308 306 307 306 307 307 308 313 312 311 309 309 312 318 323 327 329 331 331 332 332 334 334 334 333 331 333 334 335 336 336 337 338 338 339 340 341 342 343 343 343 344 346 345 348 351 351 349 344 342 341 339 338 337 337 339 340 335 329 325 318 301 298 298 297 297 304 311 309
299 299 300 300 299 298 300 299 299 299 300 301 302 305 310 311 311 308 308 308 307 307 308 308 308 311 314 311 309 310 315 319 324 327 326 329 330 331 331 331 333 334 334 333 335 337 336 337 337 337 338 338 339 340 340 341 342 342 341 342 343 345 347 348 346 344 342 342 341 340 340 340 340 342 342 339 334 331 330 330 329 314 304 299 298 299 300
303 304 301 298 297 297 299 297 297 300 300 301 301 303 309 310 311 312 311 310 310 310 309 309 310 312 315 313 311 311 316 321 324 325 328 328 327 328 329 331 333 335 335 334 333 338 342 339 337 337 337 338 339 340 340 340 340 341 341 342 344 349 349 347 344 342 341 341 341 341 340 340 341 341 338 337 335 337 338 337 333 328 324 318 304 299 305
302 302 302 297 296 299 300 300 301 301 302 302 303 304 306 307 307 307 307 308 309 309 309 309 310 311 314 312 310 310 316 320 322 325 327 325 325 325 326 328 332 333 332 332 331 333 335 333 335 335 335 336 338 339 339 339 339 339 340 341 342 343 344 343 340 341 340 340 340 340 340 340 340 338 336 336 337 336 332 332 328 323 319 316 313 305 300
300 301 302 303 303 302 302 303 302 301 300 302 303 302 303 305 305 305 305 306 307 308 307 308 311 315 312 312 313 314 318 321 324 324 323 322 322 322 324 327 330 329 328 328 327 328 330 331 332 333 334 335 338 338 338 337 337 337 338 339 339 338 338 338 339 338 338 338 338 337 333 333 336 335 335 333 332 331 330 328 325 322 319 318 318 317 313
301 302 302 302 302 302 300 299 300 301 300 300 299 300 302 302 301 301 303 304 307 306 307 309 311 312 313 313 315 318 320 321 321 320 320 319 319 320 322 324 328 326 325 324 323 324 326 328 330 331 332 334 337 337 337 336 335 336 336 336 337 337 336 336 337 336 336 335 332 329 333 334 334 333 333 332 332 330 328 326 324 323 323 324 324 321 318
302 303 302 303 302 300 298 298 299 299 299 299 299 299 300 301 301 301 302 303 305 305 308 311 314 316 316 317 318 321 321 319 318 318 317 317 318 319 319 320 321 319 319 319 320 321 323 325 328 329 331 334 336 336 336 335 335 335 335 334 332 326 325 327 330 335 334 333 334 334 333 332 331 332 331 330 330 329 327 327 327 327 327 326 324 322 321
301 302 302 302 302 300 298 297 296 297 298 298 298 298 299 299 299 300 302 305 305 307 312 314 315 315 316 318 319 320 317 316 315 315 315 315 316 317 318 316 316 318 316 317 319 320 321 323 326 328 330 334 335 335 334 334 334 334 334 335 333 332 329 327 331 332 334 335 334 333 332 332 332 332 331 331 329 328 328 328 327 327 326 325 324 324 324
298 298 298 299 300 299 297 296 296 296 296 297 297 299 300 301 301 303 304 306 309 312 312 312 313 314 314 314 315 316 315 314 314 313 313 313 314 314 316 317 315 315 315 316 317 319 320 321 325 328 331 332 333 333 333 333 333 333 333 334 334 334 334 328 329 334 335 334 332 332 331 331 331 330 329 329 329 329 328 327 327 326 325 324 321 319 316
297 297 299 300 300 298 297 296 296 297 297 297 298 299 299 301 303 305 307 311 311 311 310 311 311 311 311 312 312 313 313 313 312 312 311 312 312 312 314 315 315 314 314 315 316 318 320 323 327 329 330 330 330 330 331 331 332 332 332 332 331 330 330 330 331 333 332 331 332 332 331 330 329 329 329 328 328 328 327 326 324 322 319 318 316 315 309
300 300 301 302 303 303 303 303 303 303 303 303 306 307 309 310 311 311 312 310 308 308 309 310 309 310 310 310 310 310 310 310 310 310 311 311 311 311 312 313 313 314 314 314 315 316 319 324 330 328 328 327 327 327 327 327 328 329 329 329 328 328 328 328 328 328 328 328 328 328 328 328 328 330 329 327 326 325 324 324 322 321 319 318 317 318 314
300 299 299 300 302 303 303 304 304 304 304 303 304 304 305 306 307 307 307 308 309 309 309 308 309 309 308 308 308 308 308 309 310 310 310 311 311 312 312 311 311 311 312 313 314 315 318 322 329 330 327 326 325 327 327 325 325 326 326 325 325 325 324 324 324 324 324 323 323 323 324 325 325 324 323 322 321 321 319 318 318 318 318 317 317 317 316
300 299 299 300 301 301 302 303 304 304 304 304 304 303 303 304 304 306 307 307 308 308 308 308 308 307 307 307 308 309 309 309 309 310 310 311 312 311 310 310 311 310 310 309 311 314 316 318 321 323 321 322 323 324 326 326 322 322 323 322 322 322 322 321 320 319 319 319 319 318 318 318 316 317 319 319 318 318 317 316 315 315 315 314 314 313 313
300 300 299 299 300 301 301 302 303 304 305 304 305 305 305 304 304 305 305 306 307 308 308 307 307 307 308 308 307 307 307 308 308 308 309 309 309 309 308 309 309 310 308 308 312 314 315 317 318 317 317 319 320 321 322 323 324 320 320 320 320 320 319 319 318 317 317 316 316 314 314 313 312 312 313 313 314 314 314 313 313 312 311 310 310 309 309
299 300 299 300 300 300 301 302 302 303 303 303 304 304 305 306 305 305 304 305 306 307 307 306 307 306 306 305 305 306 306 307 308 308 308 308 309 307 307 307 309 310 312 314 313 313 314 315 314 314 314 315 317 317 320 321 320 316 316 317 317 317 317 316 316 316 316 315 314 314 313 313 312 311 310 310 310 311 311 310 309 308 307 306 306 306 306
299 299 299 299 299 300 300 301 301 301 302 303 303 302 305 305 304 304 303 303 305 307 305 306 305 304 304 304 304 304 306 307 307 308 307 308 308 307 307 307 309 311 314 315 315 314 314 314 312 311 311 312 313 314 316 316 316 313 312 312 312 312 313 313 312 311 311 312 312 312 310 309 309 308 308 308 307 307 307 307 306 305 304 304 304 304 304
299 300 299 299 299 299 299 300 300 301 301 302 302 302 304 304 305 304 303 303 303 304 305 305 304 303 304 304 304 305 306 307 307 307 308 307 306 305 304 304 308 311 312 313 314 314 315 314 312 309 310 310 311 313 311 313 310 310 309 308 308 308 308 308 308 308 308 308 308 306 306 306 305 305 304 303 303 302 302 302 302 302 302 302 302 302 302
300 300 300 299 299 299 299 300 301 300 300 301 302 303 302 303 304 303 304 305 304 304 303 304 306 304 304 304 305 305 305 306 306 306 306 306 305 304 303 305 309 310 312 313 312 312 311 311 312 314 311 310 311 311 310 308 306 306 306 306 305 306 305 304 304 304 304 304 304 304 305 304 303 302 302 301 301 301 301 301 300 300 300 300 301 301 301
301 300 300 299 299 299 299 300 300 300 301 301 302 302 302 302 302 303 304 304 305 305 304 304 305 306 305 304 303 303 303 305 305 305 305 306 307 307 306 306 308 310 312 311 310 309 309 310 310 311 312 312 312 312 311 307 306 304 304 304 305 304 304 303 303 303 302 302 301 301 301 300 300 299 299 298 298 298 298 298 298 298 299 298 299 299 299
301 301 301 301 300 301 300 300 300 300 300 300 301 302 301 301 301 302 302 303 303 304 304 304 304 305 305 305 304 303 303 304 304 305 304 304 305 307 309 309 309 310 311 310 309 308 308 309 309 310 312 311 311 310 308 307 307 307 306 306 305 304 303 302 302 302 301 301 300 300 300 301 299 298 298 297 297 297 298 297 297 297 297 297 297 297 297
298 299 300 301 301 301 300 299 299 299 300 301 301 301 301 300 301 301 302 302 302 303 304 304 304 304 304 304 304 304 305 305 306 306 303 302 302 303 309 310 310 310 311 310 308 308 307 308 309 310 310 309 309 309 306 305 305 305 305 304 304 304 304 303 302 301 301 301 301 301 301 300 300 300 299 299 299 298 298 298 298 298 297 297 296 296 296
297 297 298 301 299 300 301 301 302 301 301 300 300 301 302 301 301 301 301 301 301 301 302 303 303 304 304 304 305 305 305 305 306 307 307 306 305 306 309 310 309 310 310 309 308 307 308 310 309 308 308 308 308 306 305 305 305 304 303 303 303 304 302 302 302 301 301 300 300 299 299 299 299 299 299 298 298 299 299 299 298 297 298 297 296 296 296
296 296 296 296 297 300 302 302 303 301 300 299 298 298 301 301 301 301 301 301 301 301 302 302 303 304 305 305 304 303 303 303 304 306 307 307 309 310 310 310 310 310 308 307 307 307 307 307 309 308 308 308 308 305 304 304 303 303 303 303 303 302 302 301 301 301 301 301 302 301 301 300 298 297 298 297 297 297 297 297 296 295 296 297 296 297 297
296 295 295 296 296 298 299 299 299 298 298 299 299 300 300 300 300 301 301 301 301 301 301 301 302 304 305 305 306 306 305 303 301 302 306 307 307 308 307 306 307 308 308 308 307 308 308 307 307 307 307 307 305 304 304 304 304 304 303 303 302 302 302 301 301 301 301 300 300 298 297 296 296 296 295 294 294 295 294 294 294 294 294 294 294 295 295
296 295 296 297 296 298 299 299 299 299 298 300 300 300 301 300 300 300 300 300 300 300 300 300 301 302 303 305 306 305 306 307 304 302 305 306 306 306 306 307 307 307 307 306 304 305 307 306 306 306 306 305 303 303 303 303 304 304 304 303 303 303 303 302 302 302 301 300 300 299 297 296 296 295 295 296 296 295 296 295 295 295 294 294 294 295 295
296 296 296 296 296 296 296 297 297 297 299 300 299 300 300 300 299 298 300 299 300 301 299 299 300 301 301 302 304 305 305 306 306 306 306 305 304 303 305 306 305 305 305 303 304 304 306 306 306 305 304 302 302 302 302 302 302 302 302 303 303 303 304 304 303 303 302 301 300 299 298 298 297 298 298 296 296 296 296 297 296 296 296 296 295 295 295
296 295 295 297 297 299 298 299 299 299 298 299 299 300 299 299 299 300 300 299 298 299 298 299 299 300 301 301 303 304 305 305 306 306 304 304 304 304 304 303 303 303 303 302 302 302 301 302 302 304 303 303 301 302 302 301 301 302 302 302 302 303 303 303 302 300 299 299 299 299 299 299 298 298 297 297 297 297 297 297 296 295 295 295 294 294 294
297 296 296 296 297 297 299 299 300 300 299 299 298 298 298 297 297 297 298 299 298 297 297 297 297 299 301 301 302 302 304 304 305 303 304 304 302 301 303 302 301 301 300 299 299 300 301 303 303 303 302 300 300 301 302 302 301 301 301 302 302 301 302 301 301 300 300 299 298 297 297 296 296 295 295 296 296 295 295 294 294 294 294 293 293 293 292
Wind_Speed
7 8 7 8 9 10 12 14 16 18 17 11 10 10 11 9 8 9 0 5 9 16 7 9 10 10 11 13 15 12 9 8 8 9 10 13 16 16 15 15 16 18 17 16 17 17 17 17 17 17 16 15 14 14 15 15 16 17 16 15 16 15 15 15 15 15 14 13 12 12 12 12 12 12 12 12 12 11 11 11 9 10 10 9 10 11 10
5 6 7 7 10 11 10 12 15 16 15 17 14 15 14 14 13 7 14 10 15 15 9 4 5 5 7 8 5 6 6 10 10 11 13 16 17 17 17 16 17 17 18 18 18 17 16 17 18 17 16 16 16 17 16 16 16 15 15 16 16 15 16 15 14 13 13 12 11 11 11 12 13 13 12 12 11 12 12 12 11 10 10 11 10 10 11
6 5 7 7 6 6 12 15 14 13 12 14 14 14 15 11 9 13 17 15 16 5 5 6 7 6 5 5 8 10 9 9 9 11 14 15 16 16 16 16 17 17 17 17 17 17 17 18 19 18 18 18 17 16 15 16 16 15 16 15 15 16 16 14 13 13 12 12 11 12 13 12 12 12 12 11 11 11 11 11 11 11 10 11 11 10 10
6 1 1 4 7 11 12 14 11 7 7 10 9 3 5 4 6 8 10 9 13 5 15 14 10 7 6 5 7 8 8 9 8 10 12 13 15 16 16 17 16 16 16 16 17 18 19 19 19 17 15 14 15 17 16 16 16 14 15 15 15 15 15 13 13 13 13 13 13 13 13 13 13 12 11 11 12 12 11 12 11 10 11 11 11 10 10
7 2 3 8 12 9 5 5 2 4 4 5 10 3 5 7 4 4 10 12 2 10 11 10 10 9 4 7 7 8 9 7 8 9 12 14 15 16 17 17 17 17 18 18 20 20 19 19 18 19 18 16 17 17 16 15 13 14 16 16 15 14 14 14 14 14 14 14 15 14 14 14 12 11 12 13 13 12 13 12 10 11 12 11 12 11 11
4 3 6 7 2 3 5 3 5 6 4 5 10 8 9 9 5 4 4 7 11 11 12 10 11 10 3 1 3 2 3 8 8 8 7 10 12 13 15 17 19 18 16 15 18 20 21 21 22 19 17 18 14 13 13 12 14 14 14 14 14 15 14 14 14 14 14 14 14 14 13 13 12 13 13 14 13 11 11 10 11 12 12 13 12 11 12
4 3 5 2 4 7 1 2 3 10 7 5 13 11 5 12 12 14 11 11 13 13 10 10 11 10 7 3 5 10 9 6 6 8 7 6 8 11 12 11 12 13 16 16 15 14 14 15 12 11 10 10 11 12 13 14 14 14 14 14 13 13 14 13 13 13 14 14 14 14 13 13 13 14 14 12 13 12 10 11 12 13 13 13 12 12 12
3 4 1 1 6 1 8 3 6 9 4 5 12 6 6 16 15 14 13 14 14 14 13 11 8 8 10 7 2 11 12 10 9 7 7 7 7 9 11 14 14 14 14 14 16 17 13 13 13 14 14 14 15 15 14 15 14 14 14 14 14 13 14 14 15 14 14 14 14 13 13 13 14 14 13 14 14 12 12 12 11 10 10 11 13 13 13
4 4 4 8 8 12 4 4 5 9 6 9 7 5 5 13 15 16 15 16 16 18 15 12 10 8 5 3 7 13 15 15 12 8 8 8 8 7 6 8 11 11 13 14 13 10 11 14 14 14 13 14 13 13 13 13 14 14 14 14 15 15 14 14 14 14 14 15 14 14 14 14 14 14 14 14 13 11 12 11 10 11 12 11 11 11 11
5 2 4 5 2 4 1 2 2 3 5 6 8 3 5 12 18 18 17 16 17 19 17 17 12 5 3 8 9 14 16 15 14 10 3 6 8 8 8 7 8 7 7 8 9 12 12 11 11 11 13 13 13 14 14 13 14 14 15 15 14 14 14 14 14 14 15 15 15 15 14 15 14 14 14 12 13 11 12 12 12 12 10 10 11 10 12
3 1 2 3 3 3 1 4 6 10 8 8 1 3 3 8 16 19 17 17 18 17 16 17 9 5 5 5 9 12 16 14 13 10 7 2 5 9 10 11 10 10 9 10 10 10 10 11 10 11 12 14 14 13 13 14 14 15 15 14 14 15 15 14 14 14 14 15 15 15 14 15 15 15 14 14 12 12 11 11 11 10 11 10 11 11 11
5 2 3 4 3 5 4 9 11 12 10 4 3 3 3 13 16 17 17 16 17 18 18 15 11 12 8 8 9 13 14 12 11 10 8 5 6 6 8 9 12 12 12 12 12 12 13 12 11 13 13 13 13 13 14 13 14 15 15 15 15 14 14 14 13 13 13 14 14 14 15 15 14 14 13 10 10 10 11 9 10 9 10 9 11 10 10
6 6 4 4 5 4 6 11 14 12 8 3 2 3 7 11 14 15 14 14 15 15 15 14 11 10 8 7 9 12 13 13 14 12 9 8 8 8 8 9 10 11 12 14 15 15 13 13 13 14 13 13 12 12 12 12 15 16 14 12 12 12 12 12 13 14 13 14 15 15 14 15 14 13 11 11 11 12 11 10 11 10 11 11 11 11 10
6 4 4 7 6 1 8 12 10 10 2 4 5 5 6 8 11 13 13 13 14 15 14 12 11 10 12 13 12 14 14 12 12 12 12 11 13 12 11 10 9 10 9 9 9 8 8 12 13 13 14 15 13 12 12 15 16 12 8 9 11 11 12 12 13 13 13 12 13 13 12 11 10 11 10 11 11 12 11 10 12 12 11 10 10 11 10
3 4 4 3 4 3 9 13 5 11 7 2 3 7 6 7 9 11 12 11 13 15 15 17 15 14 16 15 14 14 14 14 12 13 13 13 12 12 12 12 9 11 11 11 9 8 6 7 9 11 13 13 11 11 13 10 6 8 10 10 10 11 11 11 11 12 12 14 12 11 11 12 13 13 11 11 11 11 11 11 11 12 12 10 10 10 10
3 5 4 2 2 6 9 7 5 5 5 1 3 6 7 8 8 10 10 12 12 13 14 15 17 14 13 14 16 16 17 16 15 14 14 14 13 13 13 12 10 12 13 11 11 9 8 7 7 8 11 10 9 9 8 5 6 6 8 8 8 9 10 11 11 11 12 13 13 11 12 12 12 12 11 11 11 10 11 11 10 11 10 10 9 10 11
1 2 3 2 2 3 6 7 8 6 5 5 5 5 4 7 9 9 9 12 12 13 14 15 14 14 14 14 14 13 14 14 14 13 13 12 12 11 11 12 10 10 12 12 12 12 10 10 8 8 9 11 10 9 3 4 7 7 8 9 9 10 10 10 10 10 10 11 12 12 11 12 12 11 11 11 10 9 10 10 10 10 10 10 10 11 10
7 9 9 0 3 2 6 7 6 5 4 4 4 6 7 6 7 7 9 11 11 12 12 12 13 13 15 15 15 16 15 14 15 16 14 14 13 12 12 12 11 9 9 10 12 13 11 10 10 9 8 10 12 6 4 4 5 7 8 9 10 11 11 11 11 11 11 11 11 12 12 11 12 11 12 12 11 10 10 11 11 11 10 10 10 10 10
5 1 3 5 5 2 4 5 5 4 3 5 5 5 5 6 8 9 9 9 10 11 11 11 12 15 18 16 15 14 13 15 17 16 14 12 11 11 11 10 9 10 9 10 11 11 11 7 8 8 9 8 8 6 6 5 5 7 7 8 8 8 10 11 11 11 12 11 10 10 11 10 10 10 10 9 10 10 10 10 10 10 10 9 9 8 9
4 6 5 8 8 2 4 2 2 2 3 3 4 4 6 7 6 8 11 11 10 10 12 14 13 12 11 13 14 13 12 13 13 13 13 13 12 11 9 9 9 9 9 8 8 9 8 6 6 7 7 6 4 5 5 5 5 6 7 8 8 8 8 7 8 10 11 12 12 10 10 11 10 9 9 9 10 11 11 11 11 10 11 10 10 9 9
8 11 9 6 7 5 6 5 6 2 2 1 2 3 5 8 8 10 12 12 12 11 12 14 15 14 11 10 11 12 12 13 12 12 12 12 11 9 10 8 8 8 6 7 6 7 6 5 5 7 6 5 5 6 5 4 5 7 6 6 6 7 7 7 7 7 8 8 10 9 7 5 4 2 3 7 9 9 8 8 11 10 10 10 9 8 8
6 3 2 8 5 3 5 11 11 7 5 2 4 3 6 8 8 7 10 12 13 11 11 11 14 18 16 12 9 11 11 12 13 13 13 12 11 11 9 7 7 7 7 6 6 6 5 4 5 6 6 6 5 5 5 5 5 6 5 5 5 5 6 6 6 7 7 7 6 6 6 7 7 5 8 7 5 3 6 1 2 7 10 11 10 9 8
10 9 10 10 8 10 10 8 4 5 11 9 4 3 3 6 6 6 7 9 12 12 12 10 10 16 18 19 15 11 8 11 13 12 12 12 11 9 8 9 9 7 7 6 6 6 5 3 4 5 6 6 6 5 5 5 5 5 4 4 4 4 5 6 7 7 7 7 6 7 6 8 8 8 6 8 13 11 6 3 1 0 5 7 10 11 10
17 16 15 10 7 9 8 3 7 12 9 9 9 3 2 3 5 5 5 5 8 9 9 11 7 9 15 18 15 16 16 11 10 12 12 12 9 8 7 7 7 8 8 7 6 5 5 4 4 5 6 6 6 5 4 4 3 4 3 4 4 4 5 5 6 6 6 7 7 7 7 8 9 8 7 7 5 11 11 8 9 9 6 1 9 14 15
13 11 12 12 10 10 9 9 10 10 11 9 8 7 3 2 5 3 4 5 7 7 8 9 9 7 12 16 16 14 14 15 12 11 12 11 12 9 7 8 8 7 6 4 4 5 5 5 6 6 7 6 5 4 3 3 4 5 3 3 4 4 4 5 5 6 6 6 7 9 10 9 9 8 9 9 9 5 7 11 14 13 12 11 5 8 12
13 13 12 12 10 8 6 8 11 11 12 13 11 8 8 8 7 5 5 5 6 8 7 9 10 10 8 13 15 13 15 16 16 14 10 12 12 11 11 10 8 5 4 4 4 5 4 4 4 4 5 4 4 3 3 4 6 6 5 3 2 3 5 7 7 6 6 7 7 7 7 8 9 9 8 5 7 8 7 6 7 10 13 15 12 10 9
10 9 9 10 10 8 9 10 7 6 11 13 13 10 9 8 9 7 6 6 5 7 9 8 8 8 6 9 15 14 11 13 13 11 11 11 11 11 11 9 8 6 6 6 7 7 5 4 5 6 6 6 5 5 6 6 7 7 5 5 4 3 5 5 5 6 6 7 7 7 7 7 8 7 6 6 7 8 8 8 6 5 3 6 11 11 8
7 8 6 7 9 8 4 8 11 8 7 6 6 6 8 8 5 8 8 6 5 5 8 7 6 7 6 7 10 14 14 14 12 11 10 10 11 10 11 11 8 6 5 6 7 7 7 6 6 6 6 6 5 5 6 6 7 6 5 5 4 4 4 4 4 5 5 6 6 7 8 7 7 5 5 6 7 6 6 6 7 8 6 5 6 10 16
11 9 7 8 12 11 9 6 4 6 9 11 11 8 4 6 8 8 8 5 3 4 7 8 6 4 5 7 8 10 10 9 10 10 9 9 10 10 10 9 7 6 6 6 7 8 8 8 7 6 6 6 3 4 5 7 7 5 5 4 4 4 4 4 4 4 5 6 5 6 5 7 7 6 6 5 5 6 6 7 8 7 8 8 10 11 11
12 10 8 9 9 9 8 7 8 8 8 9 12 12 8 7 5 6 7 5 5 7 8 8 5 5 4 4 7 8 9 9 8 7 7 8 9 10 10 9 5 7 8 10 9 8 8 8 7 5 5 5 2 4 6 7 7 6 6 5 4 3 3 4 5 5 5 5 6 9 7 6 6 6 6 5 6 6 7 8 9 10 9 8 7 9 11
12 7 6 7 8 7 6 8 6 6 8 7 7 6 6 5 5 5 7 6 3 4 4 5 5 5 5 5 5 7 6 5 5 5 7 7 8 9 10 10 7 6 6 7 8 8 7 7 6 6 6 4 3 5 6 7 6 6 6 5 5 8 10 9 6 5 5 5 5 5 5 6 6 6 7 7 7 8 8 9 9 9 8 8 8 7 9
16 13 12 10 8 7 7 5 5 6 7 7 8 9 7 6 7 7 6 6 6 6 4 3 5 5 4 4 5 6 2 3 5 6 6 6 7 8 8 8 7 5 5 5 6 7 7 6 6 7 7 4 4 5 5 6 6 7 6 5 4 4 7 10 7 7 5 5 6 6 5 6 6 6 7 6 6 7 9 9 8 9 8 9 10 8 8
17 15 15 15 13 9 7 5 5 6 5 6 7 7 6 6 7 8 5 4 4 4 4 4 2 2 3 4 4 3 1 1 4 5 5 5 6 7 7 6 5 5 5 5 5 6 6 7 7 7 5 4 5 5 5 6 6 6 5 5 4 5 5 6 9 7 7 6 5 6 6 6 6 7 8 9 8 8 8 9 9 8 8 8 8 8 6
16 15 15 15 14 11 9 8 2 2 4 3 3 4 5 6 6 5 5 3 3 4 4 3 3 3 2 2 2 2 2 0 1 3 4 4 4 5 5 5 5 4 4 6 7 8 7 7 6 3 3 5 6 6 6 5 5 6 5 5 5 5 6 6 7 8 8 8 6 7 8 8 7 7 9 10 9 7 7 9 10 10 10 8 7 9 13
17 17 16 16 16 16 15 9 7 6 3 2 1 1 0 2 3 4 4 1 2 1 1 2 3 3 3 3 4 3 4 3 1 1 2 3 4 4 3 4 5 5 6 9 10 9 8 8 4 3 5 7 8 7 7 8 7 5 6 6 6 6 6 7 7 7 7 8 8 8 7 8 9 9 9 10 10 10 9 9 9 9 10 10 10 9 11
17 17 16 16 17 18 15 14 11 9 8 7 7 7 7 6 7 6 4 4 4 3 3 2 2 3 4 4 4 4 4 2 0 0 1 1 1 1 3 7 7 7 8 8 10 9 9 8 12 11 7 7 8 9 10 8 9 8 7 6 6 7 7 9 9 9 9 9 10 10 9 11 11 9 10 10 10 11 11 10 9 9 10 9 9 9 9
16 17 16 16 16 18 18 15 14 12 11 10 10 10 10 10 9 7 7 6 6 5 4 2 2 5 5 4 4 4 4 3 2 2 1 1 1 4 6 6 8 8 8 8 9 8 7 8 12 13 9 7 10 11 12 14 8 8 8 8 7 7 7 9 10 11 12 11 10 11 12 11 9 8 8 9 10 11 12 12 11 10 9 10 9 9 9
15 15 16 15 15 16 16 15 15 14 13 12 11 11 11 8 7 8 8 7 6 6 5 3 4 5 5 5 5 6 5 5 4 4 2 2 0 7 9 8 7 6 7 6 6 6 6 9 12 9 7 9 9 10 14 17 15 9 8 8 8 7 9 10 10 10 12 11 12 13 12 10 10 11 9 9 9 10 11 11 10 11 10 9 8 8 8
16 15 15 15 15 16 16 16 16 16 15 14 12 11 11 11 10 9 9 9 8 7 6 6 5 6 7 6 6 6 7 6 4 4 3 4 4 9 9 7 6 6 5 4 4 5 7 8 7 9 9 10 10 11 14 17 16 10 9 8 9 8 8 8 10 11 11 10 11 12 12 12 12 11 11 11 11 12 11 11 9 9 9 9 8 9 9
12 13 14 14 14 14 14 14 15 15 15 15 14 13 12 11 10 10 11 11 10 10 8 8 7 6 8 8 7 7 7 6 5 4 5 4 4 8 9 10 9 8 7 9 6 6 10 15 11 8 9 9 8 8 11 15 14 10 9 9 9 9 8 8 8 8 9 11 13 14 12 13 13 12 10 10 11 10 10 11 11 9 9 9 9 8 8
9 10 10 11 12 12 13 13 13 13 14 14 14 13 13 12 10 12 12 11 11 10 10 10 9 9 9 8 7 7 7 8 7 7 5 5 8 8 10 10 8 7 8 7 7 8 11 10 10 9 9 8 8 8 9 15 11 9 10 10 10 9 9 9 9 8 8 9 10 9 11 11 11 11 10 10 10 9 9 9 10 9 9 10 9 9 9
8 7 9 10 10 10 11 11 11 13 13 13 13 13 14 13 12 12 11 10 11 11 11 12 16 13 10 8 7 8 9 8 8 8 9 9 7 6 9 9 7 7 13 12 11 11 9 9 10 9 9 11 12 19 17 12 10 9 9 11 11 11 11 10 10 9 8 8 9 10 11 11 13 13 11 10 10 10 10 10 10 10 9 10 10 9 9
6 7 7 7 8 9 10 10 11 11 11 12 13 13 13 12 12 12 12 12 12 11 11 11 13 15 12 10 9 9 8 7 7 7 9 10 11 10 9 8 7 9 16 11 10 9 10 9 10 9 13 11 11 17 17 13 13 13 13 12 13 12 12 11 11 11 10 10 11 10 11 11 11 12 13 12 11 10 10 10 10 10 10 9 9 8 8
4 4 4 5 6 6 7 8 8 9 10 10 10 12 13 13 13 13 13 12 13 13 13 12 12 12 13 12 11 10 9 8 7 6 6 8 10 12 10 8 7 12 18 10 8 9 10 11 11 17 23 22 21 17 11 9 9 10 11 12 13 14 16 15 13 12 13 12 12 12 12 12 11 12 12 12 12 12 11 11 10 10 9 9 9 8 8
5 4 4 4 4 5 5 6 8 8 7 7 9 11 11 11 11 12 12 13 13 14 14 14 13 12 11 11 11 11 10 9 9 7 7 8 11 11 8 10 11 10 13 14 10 10 11 13 18 24 21 22 21 18 11 11 11 11 11 11 11 11 11 12 14 15 15 15 14 12 12 11 12 12 12 13 12 12 11 11 11 10 10 9 8 9 9
5 5 5 5 5 5 5 5 6 6 8 8 9 10 10 10 11 10 11 11 11 11 11 12 12 13 12 11 10 10 10 10 10 10 10 9 9 8 8 11 9 12 16 16 10 10 12 21 22 20 20 20 19 13 12 12 12 12 12 12 11 11 12 11 11 12 13 14 14 13 12 12 12 12 11 10 11 11 11 11 10 9 9 9 9 8 9
5 5 6 5 4 4 4 5 5 7 7 8 9 8 8 9 9 9 9 9 9 10 10 10 11 11 10 10 10 10 10 9 9 9 9 9 10 11 12 16 16 19 14 11 10 11 11 14 17 21 21 21 17 11 11 12 13 12 12 12 12 12 12 12 12 12 12 12 13 15 15 12 12 12 12 11 10 9 8 10 9 8 7 8 8 9 9
6 5 5 5 5 4 4 5 5 6 6 7 6 6 7 8 9 9 9 9 9 9 10 10 9 10 10 10 9 8 8 7 7 9 9 8 8 8 8 8 11 16 16 15 17 18 23 22 21 20 20 17 11 11 11 11 11 11 11 11 11 11 11 11 11 11 11 12 12 12 11 11 11 11 12 13 11 9 8 9 9 8 7 7 7 7 8
6 6 4 5 6 5 5 4 4 4 4 4 5 5 6 7 8 8 8 9 9 9 8 9 10 9 9 9 9 8 7 7 6 6 7 7 8 7 8 10 15 15 10 9 10 11 18 20 19 18 17 13 9 9 9 10 10 10 10 10 10 10 10 10 10 10 11 12 11 11 11 11 10 10 10 10 10 9 9 9 8 7 6 6 7 8 8
6 5 7 7 6 6 5 4 4 4 3 3 4 4 4 6 6 6 6 7 7 7 7 8 8 7 7 7 7 7 7 7 8 7 7 8 9 8 8 7 8 13 13 9 9 9 13 18 17 16 12 9 9 9 8 9 9 10 9 10 10 9 10 11 11 13 12 11 11 11 11 11 11 12 11 10 9 9 8 7 7 10 14 9 8 7 7
6 5 6 5 5 5 5 6 5 5 4 4 4 4 5 5 6 6 6 6 6 7 7 7 7 8 7 7 6 7 7 7 7 9 8 8 7 9 10 8 9 9 9 8 7 8 8 8 8 9 9 9 9 9 9 9 9 9 9 7 8 9 10 11 11 11 11 11 10 10 10 10 10 10 9 9 8 8 7 7 7 7 7 8 8 7 7
4 4 5 5 5 6 6 6 6 5 5 5 4 4 4 4 5 5 5 8 6 5 5 6 7 7 6 6 6 6 6 6 6 5 7 7 7 7 8 11 8 9 8 8 8 8 7 8 10 12 12 9 8 9 11 13 10 9 9 9 9 9 9 8 9 10 10 10 10 10 11 10 9 9 9 8 7 7 7 7 7 7 7 7 7 7 6
Wind_Direction
231 246 260 275 289 267 269 272 274 281 285 283 257 250 239 263 245 248 174 207 250 260 238 231 229 225 230 235 242 236 222 222 232 235 221 208 206 203 193 189 184 185 183 181 182 181 182 178 177 178 179 180 179 181 182 181 180 183 179 179 182 184 186 190 193 193 193 194 195 194 194 194 196 197 197 199 198 196 197 201 203 203 203 202 204 212 215
256 256 260 273 277 281 270 261 264 266 277 279 268 260 251 235 249 299 294 264 248 256 268 287 262 239 244 258 295 308 267 232 220 215 211 207 204 194 188 186 185 185 184 180 180 179 176 177 178 177 178 179 180 180 181 180 182 181 174 181 182 184 188 192 192 190 190 190 190 190 192 195 198 199 199 199 197 199 202 204 204 203 205 207 208 208 212
273 246 267 263 259 278 288 276 270 274 271 274 269 249 249 241 254 250 256 266 269 267 51 330 301 297 265 279 276 270 265 256 226 206 203 202 194 187 186 183 184 185 183 180 176 175 178 179 179 179 181 182 180 178 178 179 182 179 177 179 182 184 190 190 187 186 185 189 186 190 194 197 198 199 200 198 199 203 204 203 203 203 204 208 211 211 210
296 268 228 273 282 284 263 268 277 286 321 337 337 360 323 213 221 228 236 257 258 323 336 331 313 341 3 347 328 320 304 279 241 205 198 191 189 185 185 184 183 181 179 175 175 179 181 181 180 181 179 175 174 181 179 180 179 173 177 179 182 186 189 184 184 184 186 185 187 193 193 198 198 197 196 198 202 203 202 203 205 203 207 211 212 213 214
264 251 355 313 316 311 273 205 207 322 333 321 324 282 4 9 286 243 216 237 14 314 315 328 313 334 341 13 2 336 324 294 255 224 200 196 191 187 182 181 182 180 179 179 181 183 181 181 181 183 176 174 182 180 177 177 168 173 179 180 182 186 185 184 185 186 185 186 191 193 196 196 194 192 196 201 203 202 204 204 201 205 210 210 213 214 215
265 343 326 320 335 215 227 136 111 39 331 342 349 325 5 349 14 282 278 280 298 315 320 314 295 302 315 53 319 265 272 300 288 261 236 210 198 190 186 183 180 180 180 182 184 183 182 183 184 178 175 179 175 168 164 160 171 173 176 180 183 186 185 187 187 186 186 189 193 196 194 193 192 195 198 203 203 202 204 201 204 208 209 211 213 214 216
277 310 354 298 209 225 316 244 56 13 343 14 334 299 350 10 359 354 345 332 335 322 305 284 275 260 251 258 344 357 350 327 283 252 229 220 198 190 186 183 181 180 181 181 181 180 183 179 168 158 160 148 148 158 164 168 171 172 178 180 183 185 188 187 185 187 188 191 195 194 193 193 194 198 199 201 202 202 199 201 204 208 208 210 214 215 217
297 7 131 197 214 264 302 173 48 16 32 20 347 333 20 21 9 356 346 335 327 324 319 314 289 270 275 278 313 4 349 346 321 261 227 199 186 191 187 180 182 180 180 177 177 183 172 161 165 167 164 161 162 168 166 168 172 175 177 181 185 184 187 187 188 188 188 191 195 194 194 194 197 200 200 201 202 200 202 206 209 209 210 211 213 214 215
196 204 177 235 320 324 0 28 30 356 346 338 352 319 313 19 4 2 344 336 339 335 328 315 299 291 281 336 341 7 353 343 330 274 220 180 184 176 192 193 191 186 180 176 171 150 155 166 165 167 161 162 161 158 165 170 171 175 179 184 188 187 188 189 189 188 189 191 194 195 194 195 199 201 202 203 205 200 204 206 204 206 210 209 212 212 211
213 260 311 332 0 222 218 168 212 317 306 297 283 258 273 17 0 356 348 343 343 337 331 331 320 319 30 9 343 351 344 345 333 331 293 177 157 157 148 125 112 112 112 111 133 154 158 163 162 156 158 157 159 164 168 168 172 180 183 189 188 185 189 189 189 188 190 191 194 195 193 197 199 202 204 204 204 198 201 203 207 208 206 213 211 211 213
39 32 162 221 208 238 130 292 340 329 315 307 303 171 221 21 353 354 348 348 347 346 339 328 342 46 50 8 350 340 340 339 342 337 346 17 140 147 147 141 132 125 128 130 128 129 137 144 151 153 157 158 161 167 170 174 179 182 187 189 187 188 191 189 189 190 191 193 195 194 194 199 201 202 203 203 201 198 202 205 210 207 208 212 212 214 215
220 224 239 263 223 253 291 339 338 323 309 352 143 189 37 1 347 347 347 354 350 342 343 338 23 39 50 13 350 339 341 343 343 354 359 31 73 104 123 130 134 131 128 126 134 145 157 159 149 153 155 162 168 169 176 174 180 189 192 192 188 190 189 188 189 190 192 193 196 194 197 202 202 205 203 200 196 195 203 203 208 208 208 210 214 215 213
228 224 262 274 302 290 337 331 318 320 300 171 123 64 1 342 342 343 340 352 356 348 345 353 14 5 9 0 345 345 351 0 8 7 16 39 59 79 103 123 129 132 143 149 159 164 163 157 156 156 158 160 170 173 172 178 190 196 195 186 184 191 188 188 189 191 192 194 195 198 199 201 201 203 199 200 198 197 201 202 207 209 208 212 215 219 214
220 208 227 238 244 288 341 329 325 308 9 49 84 1 354 335 344 336 339 339 352 354 354 346 342 340 356 6 3 4 2 2 10 19 24 38 55 59 67 73 93 105 98 100 104 111 143 158 158 160 161 169 171 170 174 189 197 192 176 179 186 189 189 192 192 192 193 195 197 198 200 198 199 204 203 200 198 198 201 201 204 208 208 211 215 220 219
228 226 236 292 303 266 349 325 330 7 87 164 330 313 325 347 337 338 335 347 346 356 353 352 345 351 1 6 6 4 359 360 6 15 24 33 41 51 60 66 64 92 94 89 85 93 108 139 155 159 158 160 164 170 187 189 160 164 180 183 184 187 191 193 193 192 193 193 195 196 197 196 197 203 199 197 198 196 197 200 202 206 208 208 212 219 222
232 181 195 216 300 317 337 359 58 51 60 64 10 346 324 350 352 341 338 345 348 356 3 351 345 344 354 358 4 7 3 0 358 8 21 30 37 42 53 64 67 80 87 87 86 81 83 97 121 136 146 147 155 161 162 134 156 155 168 176 177 185 193 196 195 193 193 196 198 197 196 194 198 202 197 196 197 196 196 198 199 205 207 206 210 219 223
313 311 338 337 318 18 30 53 70 63 43 24 27 353 341 347 343 334 339 342 347 4 0 351 347 344 353 357 360 5 359 359 3 5 11 19 26 30 36 43 47 60 76 84 85 77 73 81 86 101 118 121 120 120 149 157 149 160 160 164 172 187 193 197 199 198 193 194 197 198 197 192 196 200 200 192 196 198 195 198 201 204 206 202 208 214 219
282 271 249 334 39 40 78 72 87 87 63 28 29 21 343 351 330 332 328 334 343 354 0 351 347 354 350 357 358 0 359 2 6 9 12 14 17 23 32 34 32 46 61 71 74 75 65 65 78 82 89 105 107 126 150 142 151 152 165 170 180 184 188 194 199 198 198 197 196 198 197 195 198 198 197 193 197 196 193 199 200 202 204 203 209 212 216
358 222 149 8 1 336 121 129 129 121 113 63 27 9 336 327 330 328 324 328 341 344 351 355 353 355 358 358 354 354 355 0 5 6 7 9 17 19 22 20 27 32 41 57 62 69 70 56 72 76 80 81 106 131 131 138 142 147 154 170 179 185 189 193 193 195 197 199 197 197 197 197 199 200 198 195 197 196 194 198 200 202 206 202 207 206 217
232 257 325 327 308 250 149 183 162 85 46 59 45 13 333 317 333 332 327 331 338 343 350 352 7 351 347 354 357 348 352 351 355 357 359 3 6 14 22 20 27 34 37 42 52 60 67 61 74 85 84 89 112 114 110 115 124 133 140 165 174 184 190 189 193 194 199 193 191 196 195 194 195 198 199 197 196 196 194 194 194 198 202 202 203 201 209
280 282 290 293 260 201 134 74 34 353 128 23 41 3 339 333 358 345 338 342 337 338 349 353 3 344 337 358 357 349 341 351 351 348 351 357 2 8 16 10 25 35 29 39 42 52 54 45 69 78 82 79 64 59 56 71 117 119 136 155 166 174 176 181 190 195 197 198 199 196 173 101 55 37 258 207 198 199 204 195 196 192 199 203 202 205 205
285 265 23 42 19 318 299 343 337 353 352 24 350 350 17 351 356 352 338 334 337 336 342 356 4 343 330 343 359 356 347 344 346 345 347 347 356 1 6 14 25 27 31 38 33 33 29 29 58 74 75 70 57 47 46 35 48 83 115 139 149 171 174 181 186 182 185 189 185 161 142 135 127 85 60 70 29 218 172 21 257 220 194 199 200 195 198
286 299 310 319 309 281 271 285 302 349 346 324 306 359 6 345 344 344 337 335 330 337 341 350 16 341 330 330 341 350 6 346 339 340 345 344 341 351 357 11 11 19 23 26 32 26 9 20 57 68 70 65 63 56 51 45 58 78 99 107 135 153 168 186 185 180 175 169 156 142 140 147 141 136 112 53 47 45 40 42 81 162 223 224 196 187 183
274 278 283 281 264 263 279 288 312 305 308 320 316 289 335 325 330 330 329 318 311 317 329 339 4 339 327 327 337 341 339 352 348 339 341 337 328 329 356 10 9 11 12 13 10 360 352 6 28 51 63 53 58 53 60 64 81 98 118 131 147 173 181 177 172 170 156 150 144 140 145 153 157 153 132 120 71 37 39 56 61 56 48 245 208 190 183
279 279 275 269 258 258 269 275 271 266 269 260 262 268 260 316 284 273 280 301 300 311 324 329 330 331 328 325 330 337 332 332 340 343 342 334 334 339 347 2 6 357 351 338 339 3 11 12 19 29 45 32 32 41 59 86 92 83 76 109 135 142 154 152 147 140 137 145 153 153 155 158 162 162 158 151 129 105 52 59 68 62 49 37 54 163 153
267 268 262 261 259 254 250 260 254 244 245 244 241 230 220 235 242 239 256 271 301 305 310 313 319 323 330 325 324 329 330 333 336 338 341 351 344 343 347 345 333 332 346 355 357 2 13 20 33 45 52 32 29 35 64 80 76 74 72 65 109 156 152 150 145 149 147 155 159 164 164 164 166 170 169 144 137 137 131 130 77 61 51 44 45 68 92
299 293 269 276 270 244 221 224 249 217 232 233 230 213 195 206 242 235 234 244 257 288 296 300 300 307 321 331 319 323 334 327 329 338 347 352 349 339 330 325 333 353 12 12 2 351 351 11 26 35 30 7 0 26 38 50 63 63 61 67 66 108 137 140 130 143 149 154 156 158 160 164 163 162 148 146 151 154 158 147 136 119 115 55 40 47 75
302 316 309 272 277 290 243 218 227 236 262 265 234 204 193 189 211 243 245 242 236 260 279 287 297 308 336 322 317 317 331 334 326 330 346 350 342 333 331 327 334 1 27 24 13 358 355 345 8 25 13 351 360 23 44 53 61 60 62 69 76 78 80 100 108 125 136 144 148 155 159 158 153 133 130 142 151 145 128 118 118 123 98 73 80 71 75
321 311 304 278 274 272 275 275 249 214 220 243 257 249 216 187 208 228 250 234 217 253 273 280 269 270 305 306 302 308 318 312 326 348 349 341 342 335 329 327 334 7 24 23 18 7 356 356 0 14 360 340 346 44 60 61 59 53 45 51 82 84 98 107 110 117 118 119 121 129 126 127 130 128 134 126 119 120 117 117 113 112 111 122 113 90 77
319 311 297 285 276 274 277 266 244 232 224 226 236 241 235 216 227 239 248 247 184 209 234 256 272 261 250 283 292 297 313 328 338 342 344 353 343 345 341 333 328 10 15 18 8 356 356 349 347 350 329 315 345 50 61 70 65 51 52 43 46 65 86 92 106 103 102 103 117 120 121 124 125 129 129 124 121 116 116 117 124 124 122 120 111 117 120
336 316 288 281 286 284 252 257 252 235 229 224 216 222 233 237 238 249 258 267 258 235 233 234 243 247 266 262 276 290 311 336 334 339 2 354 351 352 356 358 17 19 11 357 345 345 343 334 325 322 306 305 31 56 69 73 72 69 59 59 58 71 79 84 78 85 95 103 105 107 110 119 126 129 128 125 118 110 110 116 118 116 116 109 107 104 113
2 9 14 8 345 305 295 283 264 243 227 232 237 236 232 235 250 248 255 259 258 262 260 227 241 246 263 279 270 268 307 344 345 2 3 355 354 353 0 3 6 24 17 359 353 345 338 333 328 314 311 330 35 65 81 82 84 77 74 81 79 78 81 89 86 79 84 89 95 94 97 108 102 95 88 81 79 110 126 121 115 117 113 111 109 105 118
5 4 11 11 4 343 320 297 254 262 236 224 236 251 254 247 250 255 248 247 270 268 267 269 268 289 303 292 283 284 313 10 21 5 0 356 349 348 344 350 348 347 8 8 355 345 341 333 319 305 323 4 32 49 70 88 82 88 78 76 80 80 79 83 98 97 81 75 81 90 87 85 92 96 95 96 95 97 99 103 108 103 93 88 81 68 54
10 9 6 12 12 2 337 336 326 287 300 295 282 269 275 275 275 275 275 268 258 261 282 311 339 352 335 310 321 353 350 44 40 358 349 344 338 337 338 335 322 333 5 12 12 12 359 335 318 322 19 40 43 36 31 46 78 83 80 78 75 71 69 64 76 90 91 70 60 76 86 86 78 86 99 98 94 91 92 101 98 94 85 65 66 84 78
17 15 11 8 9 16 19 10 17 28 359 341 2 99 63 293 253 232 223 269 259 290 354 15 2 2 13 26 35 51 65 59 35 323 333 349 333 331 319 357 351 348 9 24 20 9 351 340 329 35 59 61 55 49 44 41 36 48 67 73 71 64 62 70 73 72 75 84 74 64 57 74 87 82 77 83 86 82 71 63 65 70 77 77 69 61 71
19 19 14 12 13 13 14 16 16 32 47 36 33 39 37 30 35 37 44 15 349 0 13 32 44 65 61 56 61 58 56 54 33 133 72 34 344 315 33 41 29 20 11 17 14 358 352 359 25 51 58 54 50 51 52 53 58 56 41 52 66 73 72 77 76 76 70 74 76 74 70 69 70 75 85 87 88 87 84 80 76 76 75 69 64 63 60
21 22 17 15 13 15 17 15 14 18 32 34 35 35 32 32 26 23 31 25 15 1 359 351 76 79 74 69 73 65 53 23 10 35 19 342 115 76 59 51 41 35 26 21 352 337 347 12 26 44 44 48 55 56 56 63 62 63 65 60 55 67 74 81 80 82 80 76 78 78 75 64 51 50 52 74 89 95 97 94 82 75 75 84 87 88 80
20 19 18 16 13 16 18 16 17 18 20 30 33 35 37 35 40 48 45 33 20 9 355 21 62 74 75 62 57 61 54 41 32 24 19 8 33 76 58 50 42 35 37 14 332 334 8 32 36 37 37 53 55 58 60 63 69 69 64 65 64 64 73 82 81 83 86 86 83 83 77 69 69 71 60 59 65 71 76 79 84 90 81 61 57 58 59
20 19 19 15 16 16 14 16 18 19 18 16 19 27 28 31 32 39 44 39 31 23 15 26 35 58 62 57 53 48 38 25 15 25 46 54 62 77 64 49 34 32 30 357 353 25 40 40 41 51 54 57 61 60 65 65 65 66 63 63 65 60 60 70 83 87 86 88 91 95 95 94 91 86 81 75 72 68 64 65 68 67 70 73 64 57 59
22 22 17 14 16 11 14 14 17 17 16 19 19 19 14 22 26 32 36 33 30 33 32 38 39 47 51 51 49 47 34 19 2 5 13 5 53 79 76 48 31 21 39 43 31 43 55 57 51 52 53 51 50 60 67 71 70 66 65 60 55 56 57 61 60 68 82 90 92 89 87 87 86 83 78 75 74 73 77 74 65 60 63 62 64 65 66
19 21 21 22 15 10 11 12 14 15 18 18 17 16 14 16 22 35 35 32 28 27 35 44 40 39 38 38 43 48 47 41 31 20 7 28 54 59 66 57 23 18 34 44 42 47 54 57 58 60 58 54 46 61 71 72 70 71 70 65 60 60 60 56 57 56 57 68 75 74 84 87 82 76 72 72 69 68 63 63 63 56 58 67 64 61 63
6 10 24 27 21 15 11 9 12 18 18 15 13 14 15 16 21 26 25 30 35 32 33 41 48 46 34 28 30 44 46 37 40 44 45 45 45 40 63 56 25 43 58 54 54 54 46 45 49 57 68 75 73 72 72 71 69 66 67 70 71 67 64 60 58 55 53 60 73 77 79 80 86 83 73 71 68 65 68 68 67 64 57 62 68 66 67
3 5 7 20 25 22 15 11 13 16 14 15 12 10 11 16 19 19 21 25 27 24 28 34 38 37 33 25 24 30 33 23 30 37 55 54 47 43 57 65 43 55 63 61 60 59 61 58 62 59 71 73 79 85 86 86 83 76 71 70 73 73 69 64 61 55 55 60 64 66 71 72 73 79 82 80 75 71 69 69 71 69 66 65 66 65 65
1 1 5 7 11 22 23 15 12 16 17 18 16 15 13 14 14 14 15 17 20 24 26 26 33 34 28 25 29 30 28 18 24 10 33 57 58 45 32 45 50 60 60 55 53 59 64 65 67 70 71 72 75 72 68 69 75 85 93 95 93 91 88 81 71 67 67 64 65 67 69 69 72 76 80 79 79 76 75 76 75 73 72 71 70 69 65
8 0 357 8 10 2 10 25 24 20 16 14 22 24 22 18 17 14 12 14 19 20 17 22 27 29 26 23 21 17 16 18 21 14 27 41 61 50 21 47 51 55 55 56 56 60 63 63 67 69 68 67 68 67 64 67 70 72 71 75 78 81 84 92 97 97 92 85 75 66 64 68 72 72 71 74 76 77 75 72 71 71 71 67 62 63 61
4 11 15 18 11 7 1 12 24 27 25 24 25 28 26 23 20 16 15 16 17 19 22 24 28 26 20 19 16 14 14 19 20 19 28 29 50 63 52 54 54 58 58 56 54 56 61 62 62 64 67 67 67 67 69 69 69 69 70 70 68 72 77 78 78 81 86 92 93 89 82 79 75 68 66 65 69 74 77 79 77 72 71 71 69 69 67
357 9 21 17 6 10 19 23 26 35 32 34 32 26 22 22 21 19 16 19 24 23 21 23 25 29 31 26 15 9 9 12 17 18 24 27 36 39 43 51 54 57 56 54 54 53 56 56 57 60 63 64 64 65 68 71 71 71 71 73 75 76 76 77 79 80 79 79 82 88 90 85 82 81 75 64 58 57 58 65 65 57 53 61 66 67 66
353 1 14 14 17 22 37 43 40 39 37 42 44 35 27 26 24 20 19 20 24 26 24 22 23 20 22 28 26 21 13 8 29 16 359 13 22 34 39 43 50 52 52 53 57 58 58 59 59 60 62 62 60 65 66 69 72 74 75 76 77 79 82 84 83 82 82 83 85 86 86 85 84 82 87 90 84 69 64 67 67 64 58 54 58 59 63
356 335 3 23 17 27 38 45 41 43 43 39 49 48 46 45 36 24 19 21 25 26 26 25 21 19 20 26 32 22 23 21 24 27 10 11 17 28 35 45 49 49 45 50 56 58 58 58 58 60 62 65 66 69 69 73 75 76 77 79 80 80 81 83 85 87 89 88 88 87 86 86 85 86 85 81 84 84 78 74 75 73 77 70 66 61 59
352 350 14 12 10 15 22 45 45 18 31 61 54 51 55 54 49 35 27 28 25 28 32 30 22 17 16 13 14 23 20 25 27 27 24 30 31 27 29 36 49 58 57 53 52 53 61 63 64 63 58 55 61 64 68 73 76 79 83 83 84 84 84 85 84 83 87 90 89 89 88 89 91 90 88 87 88 87 85 81 79 79 78 74 70 67 67
10 13 4 359 11 24 39 45 40 28 17 36 46 54 54 57 63 54 44 39 32 33 23 24 23 17 16 16 13 22 22 22 30 39 35 29 32 44 45 41 47 51 50 49 50 58 60 59 58 61 65 68 69 69 69 69 70 71 68 65 73 86 91 89 91 91 89 88 88 85 85 87 87 88 87 90 90 90 90 89 85 80 74 72 69 65 62
30 26 15 13 21 37 42 46 43 43 32 23 21 34 45 60 68 59 49 54 52 44 38 33 27 8 8 15 21 21 21 33 29 33 42 41 40 35 44 48 42 43 46 51 51 50 53 60 68 70 70 67 64 68 71 72 72 73 73 74 70 63 61 66 73 79 82 85 83 83 82 80 79 80 78 77 76 77 72 70 68 65 62 59 59 60 56